{"data":{"norad_id":25982,"epoch":"2026-09-19T03:11:19.723488Z","epoch_age_seconds":125955,"freshness":"FRESH","line1":"1 25982U 99065C   26262.13286717  .00000393  00000+0  17791-3 0  9990","line2":"2 25982  45.0145  88.5159 0006430 161.7222 198.3858 14.37243257400607","mean_motion":14.37243257,"eccentricity":0.000643,"inclination_deg":45.0145,"raan_deg":88.5159,"arg_perigee_deg":161.7222,"mean_anomaly_deg":198.3858,"bstar":0.00017791,"rev_number":40060,"period_min":100.19180768367,"perigee_km":763.02656173368,"apogee_km":772.2160068873,"semimajor_km":7145.7582843105,"source":"CELESTRAK","updated_at":"2026-09-20T09:00:44.909676Z"}}